Flag for Switzerland Weather past 2 weeks in Delémont, Jura, Switzerland

Now
72 °F

Mild.


Feels Like: 72 °F
Forecast: 65 / 88 °F
Wind: 2 mph from South

Location: Grenchen

Current Time: Jul 5, 2015 at 2:51:03 AM

Latest Report: Jul 5, 2015 at 2:00 AM


Visibility: N/A

Pressure: 30.10 "Hg

Humidity: 83%

Dew point: 66 °F

Location of DelémontLocation

Historic Weather in Delémont — Graph

°F

Delémont temperature yesterday

Maximum temperature yesterday: 96 °F (at 6:00 PM)
Minimum temperature yesterday: 66 °F (at 6:00 AM)
Average temperature yesterday: 81 °F

Past Weeks' High & Low Weather Summary

 TemperatureHumidityPressure
High96 °F (Jul 4, 6:00 PM)100% (Jun 22, 6:00 AM)30.26 "Hg (Jun 22, 6:00 AM)
Low44 °F (Jun 24, 5:00 AM)23% (Jun 30, 4:00 PM)29.75 "Hg (Jun 22, 9:00 PM)
Average69 °F64%30.11 "Hg
* Reported Jun 20 1:00 AM — Jul 5 1:00 AM, Delémont, Weather by CustomWeather, © 2015

Note: Actual official high and low records may vary slightly from our data, if they occured in-between our weather recording intervals... More about our weather records

Advertising

Delémont weather history for previous 24 hours

 ConditionsComfort  
Time TempWeatherWind HumidityBarometerVisibility
1:00 AM
Sun, Jul 5
73 °FMild.1 mph80%30.09 "HgN/A
12:00 AM76 °FMild.6 mph71%30.08 "HgN/A
11:00 PM
Sat, Jul 4
79 °FWarm.3 mph65%30.08 "HgN/A
10:00 PM84 °FWarm.1 mph55%30.06 "HgN/A
9:00 PM86 °FWarm.5 mph52%30.05 "HgN/A
8:00 PM90 °FHot.3 mph42%30.05 "HgN/A
7:00 PM95 °FExtremely hot.3 mph29%30.03 "HgN/A
6:00 PM96 °FExtremely hot.2 mph27%30.03 "HgN/A
5:00 PM95 °FExtremely hot.3 mph29%30.05 "HgN/A
4:00 PM95 °FExtremely hot.3 mph28%30.06 "HgN/A
3:00 PM93 °FHot.6 mph32%30.08 "HgN/A
2:00 PM92 °FHot.8 mph34%30.10 "HgN/A
1:00 PM90 °FHot.9 mph37%30.12 "HgN/A
12:00 PM88 °FWarm.8 mph41%30.14 "HgN/A
11:00 AM84 °FWarm.6 mph54%30.16 "HgN/A
10:00 AM81 °FWarm.6 mph58%30.17 "HgN/A
9:00 AM77 °FWarm.3 mph66%30.18 "HgN/A
8:00 AM72 °FMild.3 mph78%30.19 "HgN/A
7:00 AM68 °FMild.1 mph91%30.20 "HgN/A
6:00 AM66 °FMild.1 mph93%30.20 "HgN/A
5:00 AM66 °FMild.1 mph92%30.19 "HgN/A
4:00 AM70 °FMild.2 mph84%30.18 "HgN/A
3:00 AM70 °FMild.No wind86%30.17 "HgN/A
2:00 AM72 °FMild.3 mph81%30.16 "HgN/A
Weather by CustomWeather, © 2015

See weather overviewHow to use our weather pages